Regional Weather Roundup
Issued by NWS

Home | Current Version | Previous Version | Text Only | Print | Product List | Glossary Off
Versions: 1 2 3 4 5 6 7 8 9 10 11 12 13 14 15 16 17 18 19 20 21 22 23 24 25 26 27 28 29 30 31 32 33 34 35 36 37 38 39 40 41 42 43 44 45 46 47 48 49 50

000
ASUS43 KMKX 260821
RWRWI

WISCONSIN REGIONAL WEATHER ROUNDUP
NATIONAL WEATHER SERVICE MILWAUKEE/SULLIVAN WI
300 AM CDT FRI MAY 26 2017

NOTE: "FAIR" INDICATES FEW OR NO CLOUDS BELOW 12,000 FEET WITH NO
SIGNIFICANT WEATHER AND/OR OBSTRUCTIONS TO VISIBILITY.

WIZ001-002-006>008-014>016-023>028-260900-
NORTHWEST WISCONSIN

CITY           SKY/WX    TMP DP  RH WIND       PRES   REMARKS
SUPERIOR ARPT  NOT AVBL
ASHLAND        CLOUDY    48  46  93 SW3       29.75R
HAYWARD        CLOUDY    56  51  84 CALM      29.75S
SIREN          CLOUDY    58  55  91 CALM      29.73S
CUMBERLAND     CLOUDY    57  52  82 SE5       29.74S
RICE LAKE      CLOUDY    58  55  88 E5        29.76S
CHETEK         CLOUDY    58  55  91 CALM      29.75S
LADYSMITH      CLOUDY    59  54  85 CALM      29.78S
EAU CLAIRE     CLOUDY    59  54  83 S6        29.74F
MENOMONIE      CLOUDY    59  55  89 E3        29.74R
NEW RICHMOND   CLOUDY    59  53  79 SE6       29.72S
OSCEOLA        CLOUDY    60  55  82 SE6       29.74S
$$

WIZ003>005-009-010-017-018-260900-
NORTH CENTRAL WISCONSIN

CITY           SKY/WX    TMP DP  RH WIND       PRES   REMARKS
MANITOWISH WTR CLOUDY    55  51  86 SE8       29.79R
ARBOR VITAE    CLOUDY    57  52  84 SE7       29.79R
WOODRUFF       CLOUDY    57  52  84 SE7       29.79R
RHINELANDER    CLOUDY    56  51  84 SE6       29.81R
EAGLE RIVER    CLOUDY    53  47  82 CALM      29.81R
LAND O LAKES   CLOUDY    47  46  96 CALM      29.82R
PHILLIPS       CLOUDY    56  53  90 E3        29.77R
TOMAHAWK       CLOUDY    56  50  82 CALM      29.80S
MEDFORD        CLOUDY    56  51  82 SE6       29.78S
MERRILL        CLOUDY    57  52  83 SE3       29.80S
$$

WIZ029-030-035-036-043>047-260900-
CENTRAL WISCONSIN

CITY           SKY/WX    TMP DP  RH WIND       PRES   REMARKS
WAUSAU         CLOUDY    57  51  80 SE7       29.79R
MOSINEE        CLOUDY    54  52  94 SE3       29.81F
MARSHFIELD     MOCLDY    56  51  84 E3        29.78R
STEVENS POINT  CLOUDY    55  51  86 CALM      29.81S
WAUPACA        CLOUDY    58  53  84 CALM      29.81S
WAUTOMA        CLOUDY    53  51  93 CALM      29.81R
WISC RAPIDS    CLOUDY    55  52  89 SE5       29.80S
CAMP DOUGLAS   LGT RAIN  55  55 100 CALM      29.79S
$$

WIZ011>013-019>022-031-037>040-048>050-260900-
NORTHEAST WISCONSIN

CITY           SKY/WX    TMP DP  RH WIND       PRES   REMARKS
ANTIGO         CLOUDY    52  51  97 CALM      29.82R
SHAWANO        CLOUDY    53  51  93 CALM      29.82S
OCONTO         CLEAR     44  43  97 CALM      29.81R
STURGEON BAY   CLEAR     49  49 100 N3        29.81R
GREEN BAY      CLEAR     50  50 100 W6        29.81R
MANITOWOC      CLEAR     49  48  97 W3        29.81R FOG
APPLETON       MOCLDY    54  52  94 CALM      29.80R
CLINTONVILLE   CLOUDY    50  50 100 CALM      29.82R
OSHKOSH        CLOUDY    55  52  89 S3        29.81R
$$

WIZ032>034-041-042-053>061-260900-
SOUTHWEST WISCONSIN

CITY           SKY/WX    TMP DP  RH WIND       PRES   REMARKS
LA CROSSE      CLOUDY    60  58  92 E7        29.76R
SPARTA         MOCLDY    54  54 100 CALM      29.78S
VIROQUA        CLOUDY    57  55  92 N6        29.77F
BOSCOBEL       CLOUDY    54  53  97 CALM      29.80R FOG
PRAIRIE DU CHI PTCLDY    56  52  89 CALM      29.78R FOG
PLATTEVILLE    CLOUDY    57  55  94 SE5       29.79S
$$

WIZ056-057-062-063-064-067-068-260900-
SOUTH CENTRAL WISCONSIN

CITY           SKY/WX    TMP DP  RH WIND       PRES   REMARKS
REEDSBURG      MOCLDY    56  56 100 CALM      29.78F
BARABOO/DELLS  MOCLDY    55  53  92 E3        29.79F
LONE ROCK      CLOUDY    56  54  93 SE5       29.78S FOG
MINERAL POINT  PTCLDY    57  55  94 SE3       29.79S
MADISON        CLOUDY    56  54  93 E7        29.79S
MIDDLETON      CLOUDY    56  56 100 CALM      29.80F
WATERTOWN      CLOUDY    53  53 100 CALM      29.81R
MONROE         CLOUDY    55  54  94 SE3       29.80R
JANESVILLE     CLOUDY    55  54  94 CALM      29.80F
$$

WIZ051-052-058>065-066-070>072-260900-
SOUTHEAST WISCONSIN

CITY           SKY/WX    TMP DP  RH WIND       PRES   REMARKS
MILWAUKEE      MOCLDY    54  51  90 CALM      29.81R
WAUKESHA       MOCLDY    46  46 100 CALM      29.83R
MILWAUKEE/TIMM   N/A     50  46  87 CALM      29.82R
RACINE         PTCLDY    52  49  89 NW5       29.83R
KENOSHA        MOCLDY    50  49  96 W3        29.81R
FOND DU LAC    CLOUDY    53  49  86 CALM      29.81R
SHEBOYGAN      CLEAR     50  50 100 NW3       29.80R
WEST BEND      PTCLDY    48  48 100 CALM      29.82R
JUNEAU         CLOUDY    53  52  97 CALM      29.82S
$$

LSZ147-162-260900-
LAKE SUPERIOR

STATION/POSITION TIME  TEMP    WIND        PRES    WAVE
                       AIR SEA DIR/SP/G            HT/PER
                 (UTC) (F)     (DEG/KT/KT) (MB)    (FT/S)
W MID LAKE BUOY  0750   43 37  120/  8/ 10 1007.7R   1
DEVILS ISLAND    0800   44     170/  2/  2 1007.4S
PORT WING        0740   46     230/  6/  8 1008.1R
SAXON HARBOR     0740   47     200/  2/  3 1006.8S
$$

LMZ867-665-643>646-260900-
LAKE MICHIGAN

STATION/POSITION TIME  TEMP    WIND        PRES    WAVE
                       AIR SEA DIR/SP/G            HT/PER
                 (UTC) (F)     (DEG/KT/KT) (MB)    (FT/S)
CHAMBERS ISLAND  0740   48      CALM  /  1 1008.8R
N MID LAKE BUOY  0750   43 41  350/  8/  8 1009.5R   0
NORTHPORT PIER   0740   50     300/  2/  3 1009.1R
KEWAUNEE LAKESHO 0754   50     350/  1/  2 1008.8R
SHEBOYGAN LAKESH 0800   53     290/  5/  6 1009.2R
PORT WASHINGTON  0740   53      CALM  /  2 1010.2R
ATWATER BUOY     0709   51     330/  2/  4 1009.1R
MILWAUKEE LAKESH 0750   54     300/  2/  2   N/A
S MID LAKE BUOY  0750   47 45  330/  8/  8 1008.8R   2/ 5
KENOSHA   LAKESH 0800   55     300/  3/  4 1009.8
$$

TC  - TEMPERATURE IN CELSIUS
VSB - VISIBILITY IN STATUTE MILES
WCI - WIND CHILL INDEX
HX  - HEAT INDEX





USA.gov is the U.S. government's official web portal to all federal, state and local government web resources and services.